FW1657 Weather Reports


Display with metric or nautical units.
time (UTC)temp
F
wind
direction
speed
MPH
gust
MPH
rain 1hr
in
rain 24hr
in
rain mn
in
humidity
%
barometer
mb
20260502213034 63 9 9.0 14.0 0.00 0.00 0.00 51 1014.8
20260502211530 63 11 9.0 13.0 0.00 0.00 0.00 51 1014.9
20260502210029 63 11 12.0 17.0 0.00 0.00 0.00 50 1014.9
20260502204528 63 5 9.0 13.0 0.00 0.00 0.00 51 1015.0
20260502203027 63 11 7.0 12.0 0.00 0.00 0.00 50 1015.0
20260502201527 64 15 9.0 15.0 0.00 0.00 0.00 48 1015.0
20260502200035 64 11 9.0 13.0 0.00 0.00 0.00 48 1015.0
20260502194528 64 5 9.0 17.0 0.00 0.00 0.00 48 1015.0
20260502193025 65 21 7.0 13.0 0.00 0.00 0.00 49 1015.0
20260502191525 65 10 8.0 13.0 0.00 0.00 0.00 50 1014.8
20260502190024 65 12 7.0 11.0 0.00 0.00 0.00 53 1014.7
20260502184531 65 13 6.0 10.0 0.00 0.00 0.00 53 1014.9
20260502183022 66 11 6.0 9.0 0.00 0.00 0.00 53 1014.7
20260502181521 67 16 3.0 6.0 0.00 0.00 0.00 52 1014.9
20260502163021 72 24 13.0 19.0 0.00 0.00 0.00 43 1015.2
20260502161512 73 19 7.0 13.0 0.00 0.00 0.00 43 1015.4
20260502151508 74 13 13.0 18.0 0.00 0.00 0.00 44 1015.7
20260502123055 73 21 6.0 12.0 0.00 0.00 0.00 57 1018.1
20260502121543 73 22 9.0 16.0 0.00 0.00 0.00 59 1018.4
20260502114539 72 35 6.0 16.0 0.00 0.00 0.00 58 1018.9
20260502113040 73 33 9.0 14.0 0.00 0.00 0.00 57 1019.0
20260502111545 73 36 5.0 11.0 0.00 0.00 0.00 57 1019.2
20260502110033 72 46 6.0 12.0 0.00 0.00 0.00 55 1019.2
20260502104529 72 8 5.0 17.0 0.00 0.00 0.00 56 1019.4
20260502103026 71 330 6.0 13.0 0.00 0.00 0.00 57 1019.4
20260502101523 70 5 6.0 16.0 0.00 0.00 0.00 56 1019.6
20260502091511 68 10 6.0 12.0 0.00 0.00 0.00 53 1020.1
20260502080105 61 315 6.0 12.0 0.00 0.00 0.00 70 1020.2
20260502070043 57 323 4.0 7.0 0.00 0.00 0.00 77 1020.5
20260502064542 58 127 2.0 3.0 0.00 0.00 0.00 77 1020.9
20260502063055 58 89 3.0 8.0 0.00 0.00 0.00 70 1021.3
20260502061544 57 327 6.0 9.0 0.00 0.00 0.00 66 1020.7
20260502060035 56 291 5.0 9.0 0.00 0.00 0.00 72 1020.6
20260502054530 54 267 2.0 6.0 0.00 0.00 0.00 71 1020.8
20260502053029 53 33 0.0 3.0 0.00 0.00 0.00 72 1020.9
20260502051533 53 38 2.0 5.0 0.00 0.00 0.00 74 1021.1
20260502050028 52 83 2.0 5.0 0.00 0.00 0.00 73 1021.3
20260502044527 51 92 7.0 10.0 0.00 0.00 0.00 75 1021.5
20260502043025 50 321 0.0 3.0 0.00 0.00 0.00 72 1021.0
20260502041523 50 321 2.0 3.0 0.00 0.00 0.00 70 1020.8
20260502040024 50 321 2.0 4.0 0.00 0.00 0.00 69 1020.8
20260502034522 50 321 2.0 4.0 0.00 0.00 0.00 68 1020.8
20260502033020 49 318 2.0 4.0 0.00 0.00 0.00 68 1020.9
20260502031518 50 346 2.0 5.0 0.00 0.00 0.00 67 1021.0
20260502030022 50 25 1.0 4.0 0.00 0.00 0.00 66 1021.1
20260502024515 51 73 0.0 2.0 0.00 0.00 0.00 65 1021.3
20260502023115 51 74 1.0 12.0 0.00 0.00 0.00 65 1021.5
20260502021510 51 125 7.0 16.0 0.00 0.00 0.00 65 1021.5
20260502020010 51 342 0.0 0.0 0.00 0.00 0.00 64 1021.2
20260502014509 51 342 2.0 3.0 0.00 0.00 0.00 61 1021.2
20260502013008 51 343 2.0 6.0 0.00 0.00 0.00 62 1021.3
20260502011507 50 342 3.0 6.0 0.00 0.00 0.00 63 1021.4
20260502010006 50 324 2.0 3.0 0.00 0.00 0.00 64 1021.5
20260502004506 51 324 1.0 4.0 0.00 0.00 0.00 63 1021.5
20260502003002 51 350 2.0 5.0 0.00 0.00 0.00 63 1021.6
20260502001559 52 350 3.0 5.0 0.00 0.00 0.00 61 1021.7
20260501234554 53 98 2.0 7.0 0.00 0.00 0.00 59 1022.1
20260501233051 54 90 6.0 12.0 0.00 0.00 0.00 56 1022.1
20260501231559 55 352 5.0 6.0 0.00 0.00 0.00 52 1021.9
20260501230049 54 358 3.0 5.0 0.00 0.00 0.00 53 1022.0
20260501224547 54 352 4.0 6.0 0.00 0.00 0.00 54 1022.2
20260501223045 54 356 2.0 5.0 0.00 0.00 0.00 54 1022.2
20260501221551 54 352 4.0 5.0 0.00 0.00 0.00 54 1022.2
20260501220032 54 346 4.0 6.0 0.00 0.00 0.00 55 1022.4
20260501214533 54 337 3.0 4.0 0.00 0.00 0.00 55 1022.5